[[{"header":{"parameterUnit":"m.s-1","parameterCategory":1,"la1":30.2991,"la2":30.254,"lo1":-89.0895,"lo2":-89.0444,"dy":0.0017,"dx":0.0017,"nx":28,"ny":28,"refTime":"2024-08-23T09:00:00:Z","depth":0,"parameterNumber":2,"parameterNumberName":"U-component_of_WINDS"},"data":[0,0,0,0,0,0,0,0,0,0,0,0,0,0,0,0,0,0,0,0,0,0,0,0,0,0,0,0,0,0,0,0,0,0,0,0,0,0,0,0,0,0,0,0,0,0,0,0,0,0,0,0,0,0,0,0,0,0,-3.1238,-3.1239,0,-3.1348,-3.135,-3.1351,-3.1355,-3.1354,-3.1352,-3.1351,-3.146,-3.1465,-3.1469,0,0,0,0,0,0,0,0,0,0,0,0,0,-3.1027,-3.1031,-3.1238,-3.1239,-3.1241,-3.1348,-3.135,-3.1351,-3.1355,-3.1353,-3.1352,-3.135,-3.1459,-3.1464,-3.1469,0,0,0,0,0,0,0,0,0,0,0,0,0,-3.1126,-3.1032,-3.1238,-3.1256,-3.1258,-3.1348,-3.135,-3.1352,-3.1355,-3.1353,-3.1351,-3.135,-3.1458,-3.1464,-3.147,-3.1548,0,0,-3.1489,-3.1491,0,0,0,0,0,0,0,0,-3.112,-3.1134,-3.1252,-3.1255,-3.1258,-3.1336,-3.1315,-3.1417,-3.1356,-3.1318,-3.1351,-3.1349,-3.142,-3.143,-3.1454,-3.1553,-3.1557,-3.1489,-3.1493,-3.1496,-3.1497,0,0,0,0,0,0,0,-3.1114,-3.1129,-3.1281,-3.1253,-3.1257,-3.1257,-3.1269,-3.1335,-3.1379,-3.1322,-3.1322,-3.1335,-3.1422,-3.1448,-3.1457,-3.1559,-3.1489,-3.1495,-3.1498,-3.1501,-3.1724,-3.1726,0,0,0,0,0,0,-3.1104,-3.1123,-3.1278,-3.1285,-3.1183,-3.1262,-3.1276,-3.1313,-3.1378,-3.1387,-3.1337,-3.1335,-3.1439,-3.145,-3.1461,-3.1554,-3.1496,-3.1501,-3.1505,-3.1722,-3.1725,-3.1727,0,0,0,0,0,0,-3.1099,-3.1117,-3.1274,-3.1204,-3.1224,-3.1268,-3.131,-3.1316,-3.1343,-3.139,-3.1398,-3.1356,-3.1438,-3.1452,-3.1526,-3.1558,-3.1504,-3.151,-3.1719,-3.1723,-3.1726,-3.1742,0,0,0,0,0,0,-3.1093,-3.1116,-3.1147,-3.1205,-3.1228,-3.1337,-3.1312,-3.132,-3.1354,-3.1353,-3.141,-3.1418,-3.1437,-3.1516,-3.1532,-3.1566,-3.1515,-3.1717,-3.1721,-3.1725,-3.1739,-3.1746,-3.1752,0,0,0,0,0,-3.1086,-3.1147,-3.1148,-3.1167,-3.1268,-3.1339,-3.1352,-3.1374,-3.1357,-3.1387,-3.1417,-3.1416,-3.1553,-3.1524,-3.1541,-3.1577,-3.1715,-3.172,-3.1725,-3.1736,-3.1745,-3.1752,0,0,0,0,0,0,-3.109,-3.1155,-3.1157,-3.1239,-3.1284,-3.134,-3.1379,-3.1383,-3.1433,-3.1429,-3.1454,-3.1467,-3.1539,-3.1566,-3.1533,-3.1655,-3.1631,-3.164,-3.1634,-3.1643,-3.1649,-3.1639,-3.152,0,0,0,0,0,-3.1101,-3.1155,-3.1208,-3.1275,-3.1298,-3.1335,-3.1367,-3.138,-3.1427,-3.1445,-3.1481,-3.1526,-3.1578,-3.1613,-3.1664,-3.1744,-3.1755,-3.1778,-3.1784,-3.1789,-3.1795,-3.1837,-3.1847,-3.1743,-3.1743,-3.1743,0,0,-3.1123,-3.1165,-3.1197,-3.1277,-3.1313,-3.1367,-3.135,-3.1409,-3.1448,-3.1454,-3.1525,-3.1553,-3.1604,-3.1681,-3.1716,-3.1705,-3.1827,-3.1795,-3.1799,-3.1802,-3.1843,-3.1853,-3.1861,-3.1747,-3.1746,-3.1746,0,0,-3.119,-3.1229,-3.1288,-3.1324,-3.138,-3.1404,-3.1418,-3.1474,-3.1493,-3.1565,-3.157,-3.1617,-3.1709,-3.1744,-3.1774,-3.1855,-3.1855,-3.1872,-3.1903,-3.1944,-3.1952,-3.1959,-3.1985,-3.1994,-3.1878,-3.1878,-3.1878,0,-3.121,-3.1292,-3.1317,-3.1375,-3.1409,-3.1418,-3.1477,-3.1511,-3.158,-3.1603,-3.1591,-3.1704,-3.174,-3.1823,-3.1843,-3.1868,-3.1883,-3.1863,-3.1949,-3.1956,-3.1963,-3.1988,-3.1999,-3.188,-3.188,-3.1879,-3.1879,0,-3.1313,-3.137,-3.1411,-3.1477,-3.1516,-3.1575,-3.1607,-3.1643,-3.1654,-3.1679,-3.1751,-3.1794,-3.1853,-3.1875,-3.1886,-3.196,-3.1951,-3.1944,-3.192,-3.1974,-3.1998,-3.2008,-3.1882,-3.1881,-3.1881,-3.188,0,0,-3.1384,-3.1464,-3.1478,-3.1508,-3.157,-3.1613,-3.1672,-3.1731,-3.176,-3.1808,-3.1855,-3.1933,-3.1926,-3.196,-3.1975,-3.2011,-3.2069,-3.1999,-3.2,-3.2007,-3.215,-3.2153,-3.2164,-3.207,-3.2072,-3.2074,-3.2145,0,-3.1455,-3.1559,-3.1583,-3.1672,-3.1723,-3.1733,-3.1783,-3.1826,-3.1851,-3.1898,-3.1926,-3.1979,-3.1967,-3.1988,-3.2024,-3.2054,-3.2097,-3.205,-3.2112,-3.2114,-3.2096,-3.2177,-3.2181,-3.2246,-3.2155,-3.2157,-3.2158,0,-3.1552,-3.1602,-3.1696,-3.175,-3.1772,-3.1817,-3.1872,-3.1918,-3.1966,-3.1981,-3.202,-3.2031,-3.209,-3.2065,-3.2146,-3.2113,-3.214,-3.2159,-3.2162,-3.2166,-3.2137,-3.218,-3.2267,-3.2276,-3.2173,-3.2172,-3.2171,0,-3.1591,-3.1682,-3.1749,-3.1774,-3.184,-3.1871,-3.1899,-3.1945,-3.1979,-3.2027,-3.2049,-3.2103,-3.2132,-3.2174,-3.2198,-3.2179,-3.2276,-3.2254,-3.2289,-3.2288,-3.2306,-3.2304,-3.2395,-3.2329,-3.2329,-3.2329,-3.2329,0,-3.1666,-3.1722,-3.1767,-3.1808,-3.187,-3.1898,-3.1959,-3.1987,-3.2028,-3.2074,-3.2087,-3.2129,-3.2161,-3.2207,-3.2227,-3.2289,-3.2303,-3.2316,-3.232,-3.2313,-3.2311,-3.2329,-3.2324,-3.2331,-3.2331,-3.233,-3.233,0,-3.1719,-3.1751,-3.1824,-3.1881,-3.1896,-3.1939,-3.1987,-3.2026,-3.2052,-3.211,-3.2125,-3.2165,-3.222,-3.225,-3.2319,-3.2333,-3.2401,-3.2404,-3.2385,-3.2386,-3.2417,-3.2412,-3.2521,-3.2535,-3.2462,-3.2463,-3.2463,0,-3.1763,-3.1806,-3.1867,-3.1899,-3.1928,-3.1979,-3.2014,-3.2042,-3.2077,-3.2135,-3.2167,-3.2223,-3.2269,-3.2356,-3.2391,-3.2444,-3.2446,-3.2481,-3.2454,-3.2445,-3.2443,-3.2439,-3.2442,-3.2484,-3.2485,-3.2485,-3.2486,0,-3.1838,-3.1851,-3.1901,-3.1956,-3.1996,-3.2041,-3.2084,-3.2109,-3.2145,-3.2183,-3.224,-3.2276,-3.2347,-3.2401,-3.2457,-3.2485,-3.249,-3.2494,-3.2504,-3.2496,-3.2482,-3.2487,-3.2394,-3.2491,-3.249,-3.249,-3.249,-3.2489,-3.1886,-3.1924,-3.1972,-3.2026,-3.2062,-3.2103,-3.2142,-3.2173,-3.2221,-3.2281,-3.2295,-3.2354,-3.24,-3.2475,-3.2505,-3.2551,-3.2544,-3.2559,-3.2563,-3.2565,-3.2565,-3.2477,-3.2562,-3.2561,-3.2561,-3.2561,-3.2561,0,-3.1958,-3.199,-3.2039,-3.21,-3.2142,-3.2146,-3.2195,-3.2229,-3.2281,-3.2324,-3.2369,-3.2434,-3.2487,-3.2526,-3.258,-3.2609,-3.2613,-3.2622,-3.2618,-3.2624,-3.257,-3.2554,-3.2618,-3.2618,-3.2618,-3.2618,-3.2618,-3.2618,-3.2001,-3.2065,-3.2084,-3.2165,-3.2197,-3.2255,-3.2282,-3.2319,-3.2353,-3.2425,-3.2469,-3.2495,-3.2536,-3.2593,-3.2641,-3.2651,-3.2669,-3.2677,-3.2687,-3.2635,-3.2628,-3.2622,-3.2608,-3.2682,-3.2682,-3.2738,-3.2738,-3.2739]},{"header":{"parameterUnit":"m.s-1","parameterCategory":1,"la1":30.2991,"la2":30.254,"lo1":-89.0895,"lo2":-89.0444,"dy":0.0017,"dx":0.0017,"nx":28,"ny":28,"refTime":"2024-08-23T09:00:00:Z","depth":0,"parameterNumber":3,"parameterNumberName":"V-component_of_WINDS"},"data":[0,0,0,0,0,0,0,0,0,0,0,0,0,0,0,0,0,0,0,0,0,0,0,0,0,0,0,0,0,0,0,0,0,0,0,0,0,0,0,0,0,0,0,0,0,0,0,0,0,0,0,0,0,0,0,0,0,0,2.9712,2.9712,0,2.9707,2.9707,2.9707,2.9618,2.9616,2.9613,2.9611,2.9605,2.9607,2.9609,0,0,0,0,0,0,0,0,0,0,0,0,0,2.9645,2.9647,2.9712,2.9712,2.9712,2.9707,2.9707,2.9707,2.9618,2.9615,2.9613,2.961,2.9605,2.9607,2.9609,0,0,0,0,0,0,0,0,0,0,0,0,0,2.9661,2.9648,2.9712,2.9667,2.9663,2.9707,2.9707,2.9707,2.9619,2.9615,2.9612,2.9609,2.9604,2.9607,2.961,2.9696,0,0,2.9619,2.962,0,0,0,0,0,0,0,0,2.966,2.9663,2.9674,2.967,2.9666,2.9659,2.9681,2.9703,2.962,2.9636,2.9611,2.9607,2.9626,2.9627,2.9633,2.9696,2.9695,2.9619,2.9621,2.9622,2.9623,0,0,0,0,0,0,0,2.9659,2.9663,2.971,2.9674,2.9669,2.9647,2.9646,2.9685,2.965,2.9634,2.9628,2.9628,2.9623,2.9631,2.9633,2.9695,2.9619,2.9622,2.9623,2.9625,2.9826,2.983,0,0,0,0,0,0,2.9664,2.9663,2.971,2.971,2.9655,2.9651,2.9649,2.9665,2.9649,2.9644,2.9631,2.9624,2.9628,2.9629,2.9632,2.973,2.9622,2.9625,2.9626,2.9823,2.9827,2.9831,0,0,0,0,0,0,2.9663,2.9669,2.971,2.9685,2.9688,2.9656,2.9674,2.9667,2.9674,2.9647,2.964,2.9645,2.9625,2.9628,2.968,2.9729,2.9626,2.9629,2.9819,2.9824,2.9829,2.9928,0,0,0,0,0,0,2.9662,2.9669,2.9702,2.9686,2.969,2.9759,2.9677,2.9669,2.9679,2.967,2.9659,2.9653,2.9623,2.9677,2.9683,2.9731,2.9631,2.9814,2.9821,2.9828,2.992,2.9936,2.995,0,0,0,0,0,2.966,2.973,2.9704,2.971,2.973,2.9762,2.9764,2.9727,2.9684,2.9716,2.9698,2.9654,2.9723,2.9683,2.969,2.9739,2.9811,2.9819,2.9827,2.9914,2.9933,2.995,0,0,0,0,0,0,2.9752,2.9727,2.9698,2.9765,2.9767,2.9747,2.9786,2.9749,2.9762,2.9753,2.9707,2.9705,2.9764,2.9757,2.9713,2.9821,2.9759,2.9769,2.9823,2.9841,2.9856,2.9855,2.9634,0,0,0,0,0,2.9781,2.9809,2.9786,2.9848,2.985,2.9819,2.9831,2.9803,2.9802,2.9802,2.9788,2.9789,2.9811,2.9826,2.9845,2.992,2.9915,2.9958,2.9972,2.9985,2.9993,3.0031,3.0048,2.9858,2.9858,2.9858,0,0,2.984,2.9829,2.985,2.9866,2.9864,2.9893,2.9819,2.9854,2.9876,2.9807,2.9855,2.9846,2.9843,2.9907,2.9935,2.9903,3.0045,2.9995,3.0005,3.0006,3.0041,3.0059,3.0075,2.9863,2.9862,2.9861,0,0,2.9961,2.9958,3.0007,3.0007,3.0004,2.9982,2.9995,2.9981,2.9972,3.002,2.9968,2.9994,3.0033,3.0033,3.0038,3.0161,3.012,3.0169,3.0245,3.0282,3.0297,3.031,3.0352,3.0368,3.0178,3.0178,3.0178,0,3.0034,3.0077,3.0038,3.0076,3.0084,3.0024,3.0074,3.0076,3.0079,3.0086,3.0051,3.0098,3.0093,3.0155,3.0185,3.0192,3.0204,3.0168,3.0298,3.0311,3.0322,3.0362,3.0378,3.0184,3.0183,3.0182,3.0182,0,3.0166,3.0197,3.0238,3.0243,3.0256,3.03,3.0267,3.0285,3.0257,3.0239,3.0288,3.028,3.0295,3.0308,3.0281,3.0367,3.0347,3.0306,3.0243,3.0347,3.0383,3.0398,3.0192,3.019,3.0188,3.0187,0,0,3.0344,3.0327,3.0342,3.0343,3.0336,3.0359,3.0401,3.0416,3.0431,3.0437,3.0469,3.0504,3.0466,3.0472,3.0444,3.0478,3.0573,3.0432,3.0431,3.0457,3.0666,3.0694,3.0713,3.0547,3.055,3.0552,3.0665,0,3.0459,3.0528,3.0495,3.0568,3.0595,3.0539,3.0575,3.0575,3.056,3.0581,3.0565,3.0589,3.0538,3.0541,3.0572,3.0555,3.0614,3.0547,3.0576,3.0577,3.0575,3.0732,3.0762,3.0869,3.0679,3.0681,3.0683,0,3.0602,3.0613,3.0689,3.0676,3.0686,3.0719,3.073,3.0751,3.075,3.0736,3.0744,3.0708,3.0748,3.0688,3.0741,3.0696,3.0706,3.07,3.0703,3.0702,3.0634,3.0732,3.0902,3.0917,3.0705,3.0704,3.0702,0,3.0721,3.0755,3.0804,3.0807,3.0794,3.0818,3.0814,3.0809,3.0821,3.0831,3.0837,3.0852,3.0859,3.0872,3.0841,3.08,3.0898,3.0835,3.0887,3.0888,3.0907,3.0906,3.1079,3.0919,3.0919,3.0919,3.0918,0,3.0852,3.09,3.0857,3.0887,3.0939,3.0901,3.0953,3.0943,3.0939,3.0966,3.092,3.0946,3.0905,3.0928,3.0904,3.0951,3.0955,3.0945,3.0938,3.0947,3.0948,3.0951,3.0942,3.0923,3.0922,3.0921,3.092,0,3.0992,3.0966,3.1015,3.0999,3.0996,3.1035,3.1021,3.1048,3.1031,3.1066,3.1072,3.1044,3.1068,3.1039,3.1061,3.1045,3.1108,3.1091,3.1108,3.1102,3.1154,3.1149,3.1333,3.1354,3.1183,3.1185,3.1187,0,3.1075,3.1111,3.1099,3.1113,3.1112,3.1136,3.1147,3.1111,3.1125,3.1126,3.1153,3.1173,3.1186,3.1227,3.1209,3.1225,3.1206,3.127,3.1208,3.1217,3.1204,3.1201,3.1204,3.1281,3.1283,3.1285,3.1286,0,3.1226,3.1211,3.1229,3.1242,3.1256,3.1265,3.127,3.1285,3.1248,3.1265,3.1289,3.13,3.1321,3.1341,3.1353,3.1348,3.1311,3.1306,3.1319,3.1328,3.1335,3.1329,3.1139,3.1301,3.13,3.1299,3.1298,3.1297,3.1338,3.1367,3.1362,3.1383,3.1384,3.139,3.1414,3.14,3.1419,3.1433,3.1412,3.1441,3.1438,3.145,3.145,3.1472,3.1444,3.1463,3.1467,3.1472,3.1478,3.1334,3.1474,3.1474,3.1473,3.1473,3.1473,0,3.1484,3.1479,3.1499,3.1507,3.1524,3.1489,3.1493,3.1509,3.1535,3.1536,3.1551,3.1577,3.1597,3.1581,3.1597,3.1618,3.1601,3.1623,3.1619,3.1619,3.1503,3.149,3.1636,3.1636,3.1636,3.1636,3.1636,3.1636,3.1562,3.1607,3.1592,3.1638,3.1632,3.166,3.1665,3.167,3.1671,3.1703,3.1718,3.1708,3.1702,3.1717,3.1733,3.1728,3.1735,3.1763,3.1752,3.1643,3.1627,3.1612,3.1598,3.1765,3.1766,3.1865,3.1866,3.1866]}]]